sat.trackr.live / text

‹ back to catalog

CLUSTER II-FM8 (TANGO)

NORAD 26464 · 2000-045B

PAYLOAD ACTIVE UNKNOWN

§ Identity

Operator
Country
ESA
Launch date
2000-08-09
Launch site
TYMSC
Launch vehicle
Mass (kg)
RCS (m²)
1.59

Purposes: science

External: N2YO · Heavens-Above · Gunter

§ Orbital elements

Epoch: 2026-08-30T16:25:03.578016Z

Period
3,204.53 min
Inclination
149.4895°
Eccentricity
0.9133957
Mean motion
0.44936442 rev/d
Perigee alt
-142.6 km
Apogee alt
131,387.5 km
Semi-major
72,000.6 km
B*
0.0000e+0
RAAN
65.8568°
Arg perigee
283.7320°
Mean anomaly
2.2648°
Rev number
2,064

§ Raw data

CLUSTER II-FM8 (TANGO)1 26464U 00045B   26242.68406919  .00218879 -14532-2  00000+0 0  99922 26464 149.4895  65.8568 9133957 283.7320   2.2648  0.44936442 20644

JSON: /api/v1/satellites/26464 · /tle

For live sub-satellite position, see the globe view (requires WebGL).

§ Visibility from observer

Set your observer location to see the next 7 days of passes ≥ 10°. The values pass through the URL so the page stays shareable.

No JS? Fill the form by hand. The geolocation button needs JavaScript.

§ Radio — SatNOGS DB

ModeDescriptionDownlinkUplink
FM S-Band 2.249 GHz
FM S-Band 2 2.278 GHz

2 transmitters · refreshed weekly from db.satnogs.org